This is the latest recevied weather packets stored in our database for station/object KG0HG. If no packets are shown the sender has not sent any weather packets the latest 10 day(s).
| Time | Temp. | Humidity | Pressure | Rain* | Wind** | Luminosity | Snow |
|---|---|---|---|---|---|---|---|
| 1777639437 | 6.67° C | 90% | 1019.7 hPa | 0 mm | - | 16 W/m² | - |
| 1777639131 | 5.56° C | 95% | 1019.6 hPa | 0 mm | - | 15 W/m² | - |
| 1777638829 | 3.89° C | 93% | 1019.6 hPa | 0 mm | - | 13 W/m² | - |
| 1777638524 | 3.89° C | 93% | 1019.5 hPa | 0 mm | - | 14 W/m² | - |
| 1777638221 | 3.89° C | 93% | 1019.7 hPa | 0 mm | - | 13 W/m² | - |
| 1777637917 | 5° C | 94% | 1019.6 hPa | 0 mm | - | 12 W/m² | - |
| 1777637614 | 3.33° C | 95% | 1019.5 hPa | 0 mm | - | 11 W/m² | - |
| 1777637311 | 3.89° C | 95% | 1019.4 hPa | 0 mm | - | 10 W/m² | - |
| 1777637008 | 2.78° C | 95% | 1019.3 hPa | 0 mm | - | 8 W/m² | - |
| 1777636703 | 2.78° C | 94% | 1019.4 hPa | 0 mm | - | 8 W/m² | - |
| 1777636400 | 2.78° C | 94% | 1019.2 hPa | 0 mm | - | 6 W/m² | - |
| 1777636095 | 2.78° C | 93% | 1019.2 hPa | 0 mm | - | 6 W/m² | - |
| 1777635790 | 2.78° C | 93% | 1019.2 hPa | 0 mm | - | 5 W/m² | - |
| 1777635488 | 2.78° C | 92% | 1019.1 hPa | 0 mm | - | 3 W/m² | - |
| 1777635184 | 2.78° C | 92% | 1019.4 hPa | 0 mm | - | 1 W/m² | - |
| 1777634881 | 3.33° C | 91% | 1019.2 hPa | 0 mm | - | 0 W/m² | - |
| 1777634578 | 3.89° C | 91% | 1019.2 hPa | 0 mm | - | 0 W/m² | - |
| 1777634275 | 4.44° C | 92% | 1019.3 hPa | 0 mm | - | 0 W/m² | - |
| 1777633971 | 3.89° C | 91% | 1019.2 hPa | 0 mm | - | 0 W/m² | - |
| 1777633668 | 6.11° C | 93% | 1019.1 hPa | 0 mm | - | 0 W/m² | - |
| 1777633367 | 4.44° C | 94% | 1019.3 hPa | 0 mm | - | 0 W/m² | - |
| 1777633064 | 3.89° C | 96% | 1019.2 hPa | 0 mm | - | 0 W/m² | - |
| 1777632760 | 3.33° C | 95% | 1019.1 hPa | 0 mm | - | 0 W/m² | - |
| 1777632456 | 3.33° C | 95% | 1018.9 hPa | 0 mm | - | 0 W/m² | - |
| 1777632153 | 3.33° C | 95% | 1019.1 hPa | 0 mm | - | 0 W/m² | - |
* Rain latest hour (hover to see other rain measurements)
** Current wind speed in m/s (hover to see current wind gust speed)